When you browse on this site, cookies collect data to enhance your experience and personalize the content and advertising you see.
Visit our Privacy Policy to learn more. By continuing to use the site, you agree to this use of cookies and data.
  • en France
  • Liste des pays
  • À 7 jours
  • Température de l'eau
  • Carte satellitaire
  • Carte météo
  • Widgets météo
  • user-avatar
    Se connecter

    Météo par heure à Bukittinggi

    Ce jour, 21 Juillet, Dimanche

    Heure Température Précipitation Vent Pression Humidité
    00:00 +19°C° 0 mm 0 m/s 681 mmHg 96%
    01:00 +19°C° 0 mm 0 m/s 680 mmHg 96%
    02:00 +19°C° 0 mm 0 m/s 680 mmHg 96%
    03:00 +18°C° 0 mm 0 m/s 680 mmHg 96%
    04:00 +18°C° 0 mm 0 m/s 679 mmHg 96%
    05:00 +18°C° 0 mm 0 m/s 680 mmHg 95%
    06:00 +18°C° 0 mm 0 m/s 680 mmHg 94%
    07:00 +19°C° 0 mm 0 m/s 680 mmHg 92%
    08:00 +21°C° 0 mm 0 m/s 681 mmHg 81%
    09:00 +24°C° 0 mm 0 m/s 682 mmHg 71%
    10:00 +26°C° 0 mm 0 m/s 683 mmHg 60%
    11:00 +29°C° 0.2 mm 1 m/s 682 mmHg 59%
    12:00 +29°C° 0.2 mm 1 m/s 682 mmHg 57%
    13:00 +30°C° 0.2 mm 1 m/s 682 mmHg 56%
    14:00 +28°C° 1.2 mm 1 m/s 681 mmHg 67%
    15:00 +27°C° 1.2 mm 1 m/s 680 mmHg 77%
    16:00 +25°C° 1.2 mm 1 m/s 679 mmHg 87%
    17:00 +24°C° 1.1 mm 1 m/s 679 mmHg 90%
    18:00 +23°C° 1.1 mm 1 m/s 679 mmHg 93%
    19:00 +22°C° 1.1 mm 1 m/s 679 mmHg 96%
    20:00 +22°C° 1 mm 1 m/s 680 mmHg 97%
    21:00 +21°C° 1 mm 1 m/s 680 mmHg 97%
    22:00 +19°C° 1 mm 0 m/s 681 mmHg 97%
    23:00 +19°C° 0.6 mm 0 m/s 680 mmHg 97%

    Demain, 22 Juillet, Lundi

    Heure Température Précipitation Vent Pression Humidité
    00:00 +19°C° 0.6 mm 0 m/s 680 mmHg 97%
    01:00 +18°C° 0.6 mm 0 m/s 680 mmHg 97%
    02:00 +18°C° 0.2 mm 0 m/s 680 mmHg 97%
    03:00 +18°C° 0.2 mm 0 m/s 679 mmHg 97%
    04:00 +18°C° 0.2 mm 0 m/s 679 mmHg 97%
    05:00 +18°C° 0 mm 0 m/s 679 mmHg 97%
    06:00 +18°C° 0 mm 0 m/s 680 mmHg 96%
    07:00 +18°C° 0 mm 0 m/s 680 mmHg 96%
    08:00 +20°C° 0.5 mm 0 m/s 680 mmHg 90%
    09:00 +22°C° 0.5 mm 0 m/s 681 mmHg 83%
    10:00 +24°C° 0.5 mm 0 m/s 682 mmHg 77%
    11:00 +24°C° 1.7 mm 0 m/s 681 mmHg 78%
    12:00 +25°C° 1.7 mm 0 m/s 681 mmHg 80%
    13:00 +25°C° 1.7 mm 0 m/s 681 mmHg 81%
    14:00 +24°C° 2.2 mm 0 m/s 680 mmHg 84%
    15:00 +23°C° 2.2 mm 0 m/s 679 mmHg 87%
    16:00 +23°C° 2.2 mm 0 m/s 679 mmHg 90%
    17:00 +22°C° 1.3 mm 0 m/s 679 mmHg 92%
    18:00 +21°C° 1.3 mm 0 m/s 679 mmHg 95%
    19:00 +20°C° 1.3 mm 0 m/s 679 mmHg 97%
    20:00 +20°C° 1.7 mm 0 m/s 680 mmHg 97%
    21:00 +20°C° 1.7 mm 0 m/s 681 mmHg 97%
    22:00 +19°C° 1.7 mm 0 m/s 681 mmHg 97%
    23:00 +19°C° 2.1 mm 0 m/s 681 mmHg 97%

    Après-demain, 23 Juillet, Mardi

    Heure Température Précipitation Vent Pression Humidité
    00:00 +19°C° 2.1 mm 0 m/s 681 mmHg 97%
    01:00 +19°C° 2.1 mm 0 m/s 681 mmHg 97%
    02:00 +19°C° 1.4 mm 0 m/s 680 mmHg 97%
    03:00 +19°C° 1.4 mm 0 m/s 680 mmHg 97%
    04:00 +19°C° 1.4 mm 0 m/s 680 mmHg 97%
    05:00 +19°C° 1.1 mm 0 m/s 680 mmHg 97%
    06:00 +19°C° 1.1 mm 0 m/s 680 mmHg 97%
    07:00 +18°C° 1.1 mm 0 m/s 680 mmHg 97%
    08:00 +21°C° 0.5 mm 1 m/s 681 mmHg 96%
    09:00 +21°C° 0.5 mm 1 m/s 681 mmHg 96%
    10:00 +21°C° 0.5 mm 1 m/s 681 mmHg 95%
    11:00 +22°C° 0.2 mm 1 m/s 681 mmHg 94%
    12:00 +22°C° 0.2 mm 1 m/s 681 mmHg 93%
    13:00 +23°C° 0.2 mm 1 m/s 680 mmHg 91%
    14:00 +23°C° 0.3 mm 1 m/s 680 mmHg 91%
    15:00 +20°C° 0.3 mm 0 m/s 679 mmHg 92%
    16:00 +20°C° 0.3 mm 0 m/s 679 mmHg 92%
    17:00 +20°C° 0.1 mm 0 m/s 679 mmHg 91%
    18:00 +19°C° 0.1 mm 0 m/s 680 mmHg 91%
    19:00 +21°C° 0.1 mm 1 m/s 680 mmHg 91%
    20:00 +21°C° 0 mm 1 m/s 680 mmHg 91%
    21:00 +21°C° 0 mm 1 m/s 681 mmHg 91%
    22:00 +20°C° 0 mm 1 m/s 681 mmHg 91%
    23:00 +20°C° 0 mm 1 m/s 681 mmHg 91%

    24 Juillet, Mercredi

    Heure Température Précipitation Vent Pression Humidité
    00:00 +20°C° 0 mm 1 m/s 681 mmHg 92%
    01:00 +20°C° 0 mm 1 m/s 681 mmHg 93%
    02:00 +20°C° 0 mm 1 m/s 680 mmHg 92%
    03:00 +19°C° 0 mm 1 m/s 680 mmHg 91%
    04:00 +19°C° 0 mm 1 m/s 679 mmHg 91%
    05:00 +20°C° 0 mm 1 m/s 680 mmHg 89%
    06:00 +20°C° 0 mm 1 m/s 680 mmHg 87%
    07:00 +20°C° 0 mm 1 m/s 681 mmHg 85%
    08:00 +22°C° 0 mm 1 m/s 682 mmHg 79%
    09:00 +23°C° 0 mm 1 m/s 682 mmHg 73%
    10:00 +25°C° 0 mm 1 m/s 683 mmHg 67%
    11:00 +26°C° 0.1 mm 1 m/s 683 mmHg 66%
    12:00 +26°C° 0.1 mm 1 m/s 682 mmHg 65%
    13:00 +27°C° 0.1 mm 1 m/s 682 mmHg 64%
    14:00 +26°C° 0.5 mm 1 m/s 681 mmHg 70%
    15:00 +25°C° 0.5 mm 1 m/s 681 mmHg 76%
    16:00 +25°C° 0.5 mm 1 m/s 680 mmHg 82%
    17:00 +24°C° 0.5 mm 1 m/s 680 mmHg 86%
    18:00 +22°C° 0.5 mm 1 m/s 680 mmHg 91%
    19:00 +21°C° 0.5 mm 1 m/s 680 mmHg 96%
    20:00 +21°C° 0 mm 1 m/s 681 mmHg 96%
    21:00 +20°C° 0 mm 1 m/s 681 mmHg 96%
    22:00 +20°C° 0 mm 1 m/s 682 mmHg 95%
    23:00 +20°C° 0 mm 1 m/s 681 mmHg 95%

    25 Juillet, Jeudi

    Heure Température Précipitation Vent Pression Humidité
    00:00 +20°C° 0 mm 1 m/s 681 mmHg 95%
    01:00 +19°C° 0 mm 1 m/s 681 mmHg 94%
    02:00 +19°C° 0 mm 1 m/s 681 mmHg 93%
    03:00 +19°C° 0 mm 1 m/s 680 mmHg 91%
    04:00 +19°C° 0 mm 1 m/s 680 mmHg 90%
    05:00 +19°C° 0 mm 1 m/s 680 mmHg 89%
    06:00 +20°C° 0 mm 1 m/s 681 mmHg 88%
    07:00 +20°C° 0 mm 1 m/s 681 mmHg 87%
    08:00 +22°C° 0 mm 1 m/s 682 mmHg 76%
    09:00 +25°C° 0 mm 1 m/s 683 mmHg 65%
    10:00 +27°C° 0 mm 1 m/s 684 mmHg 55%
    11:00 +28°C° 0 mm 1 m/s 683 mmHg 52%
    12:00 +29°C° 0 mm 2 m/s 683 mmHg 50%
    13:00 +30°C° 0 mm 2 m/s 682 mmHg 47%
    14:00 +30°C° 0 mm 2 m/s 682 mmHg 49%
    15:00 +29°C° 0 mm 2 m/s 681 mmHg 51%
    16:00 +29°C° 0 mm 2 m/s 681 mmHg 53%
    17:00 +27°C° 0 mm 1 m/s 680 mmHg 64%
    18:00 +25°C° 0 mm 1 m/s 680 mmHg 75%
    19:00 +22°C° 0 mm 1 m/s 680 mmHg 85%
    20:00 +22°C° 0 mm 1 m/s 681 mmHg 86%
    21:00 +21°C° 0 mm 1 m/s 681 mmHg 86%
    22:00 +21°C° 0 mm 1 m/s 681 mmHg 86%
    23:00 +21°C° 0 mm 1 m/s 681 mmHg 85%

    26 Juillet, Vendredi

    Heure Température Précipitation Vent Pression Humidité
    00:00 +20°C° 0 mm 1 m/s 681 mmHg 84%
    01:00 +20°C° 0 mm 1 m/s 681 mmHg 83%
    02:00 +20°C° 0 mm 1 m/s 681 mmHg 84%
    03:00 +20°C° 0 mm 1 m/s 680 mmHg 85%
    04:00 +20°C° 0 mm 1 m/s 680 mmHg 86%
    05:00 +20°C° 0 mm 1 m/s 680 mmHg 86%
    06:00 +20°C° 0 mm 1 m/s 681 mmHg 86%
    07:00 +20°C° 0 mm 1 m/s 681 mmHg 86%
    08:00 +23°C° 0 mm 1 m/s 682 mmHg 76%
    09:00 +25°C° 0 mm 1 m/s 683 mmHg 66%
    10:00 +28°C° 0 mm 1 m/s 683 mmHg 57%
    11:00 +29°C° 0 mm 1 m/s 683 mmHg 55%
    12:00 +29°C° 0 mm 1 m/s 683 mmHg 53%
    13:00 +30°C° 0 mm 1 m/s 682 mmHg 51%
    14:00 +29°C° 0.8 mm 1 m/s 682 mmHg 58%
    15:00 +28°C° 0.8 mm 1 m/s 681 mmHg 65%
    16:00 +27°C° 0.8 mm 1 m/s 680 mmHg 73%
    17:00 +23°C° 0.5 mm 0 m/s 680 mmHg 80%
    18:00 +22°C° 0.5 mm 0 m/s 680 mmHg 87%
    19:00 +20°C° 0.5 mm 0 m/s 680 mmHg 94%
    20:00 +20°C° 0.1 mm 0 m/s 681 mmHg 94%
    21:00 +19°C° 0.1 mm 0 m/s 681 mmHg 94%
    22:00 +19°C° 0.1 mm 0 m/s 682 mmHg 94%
    23:00 +19°C° 0 mm 0 m/s 682 mmHg 93%
    Voir plus